Location: ???????
(52.3000°N, 54.4667°E)
Time: 13:37:26
(UTC+00:00)

YAOGAN 6 - Pass Details

Date: 24 January 2020
Orbit: 465 x 505 km, 97.0° (Epoch: 27 February)

Event Time Altitude Azimuth Distance (km) Brightness Sun altitude
Rises 13:35:32 0° 145° (SE) 2,592 6.1 -6.6°
Reaches altitude 10° 13:37:42 10° 137° (SE) 1,708 5.1 -6.9°
Maximum altitude 13:41:07 37° 69° (ENE) 792 3.1 -7.4°
Drops below altitude 10° 13:44:31 10° 1° (N) 1,703 5.1 -7.9°
Sets 13:46:41 0° 354° (N) 2,583 6.1 -8.2°
